[Iaude] MPEC U125: 2013 UH17 [a=47.42,e=0.30,i=9.3,H=9.0]

mpec at mpcdb1.cfa.harvard.edu mpec at mpcdb1.cfa.harvard.edu
Thu Oct 19 20:51:17 EDT 2017


M.P.E.C. 2017-U125                               Issued 2017 Oct. 20, 00:47 UT
 
     The Minor Planet Electronic Circulars contain information on unusual
         minor planets and routine data on comets.  They are published
    on behalf of Division F of the International Astronomical Union by the
          Minor Planet Center, Smithsonian Astrophysical Observatory,
                          Cambridge, MA 02138, U.S.A.

             Prepared using the Tamkin Foundation Computer Network

                              MPC at CFA.HARVARD.EDU
            URL http://www.minorplanetcenter.net/    ISSN 1523-6714


                                   2013 UH17
 
Observations:
     K13U17H @C2013 08 02.51631 01 03 01.447+04 23 44.15         24.7 rqEU125568
     K13U17H @C2013 08 02.55904 01 03 01.385+04 23 43.58         24.2 rqEU125568
     K13U17H @C2013 08 30.43177 01 01 50.413+04 13 12.89         25.3 rqEU125568
     K13U17H @C2013 08 31.43593 01 01 46.639+04 12 43.35         24.1 rqEU125568
     K13U17H @C2013 08 31.47896 01 01 46.465+04 12 41.92         24.0 rqEU125568
     K13U17H @C2013 10 06.39713 00 58 56.465+03 52 04.93         24.2 rqEU125568
     K13U17H @C2013 10 06.47088 00 58 56.062+03 52 02.03         23.6 rqEU125568
     K13U17H*@C2013 10 31.23488 00 56 49.239+03 37 43.91         24.3 rqEU125568
     K13U17H @C2013 10 31.27795 00 56 49.012+03 37 42.55         24.4 rqEU125568
     K13U17H @C2013 10 31.32073 00 56 48.802+03 37 41.28         24.3 rqEU125568
     K13U17H @C2013 11 01.26121 00 56 44.369+03 37 11.84         24.2 rqEU125568
     K13U17H @C2013 11 01.38296 00 56 43.780+03 37 07.93         24.2 rqEU125568
     K13U17H @C2013 11 05.38795 00 56 25.300+03 35 06.91         24.2 rqEU125568
     K13U17H @C2013 11 29.22393 00 54 57.757+03 25 45.16         23.8 rqEU125568
     K13U17H @C2013 12 04.25107 00 54 45.380+03 24 28.93         24.5 rqEU125568
     K13U17H @C2013 12 04.30308 00 54 45.272+03 24 28.18         24.1 rqEU125568
     K13U17H @C2014 06 27.59391 01 10 35.227+04 54 12.09         24.4 rqEU125568
     K13U17H @C2014 06 28.59898 01 10 37.989+04 54 21.09         24.4 rqEU125568
     K13U17H @C2014 07 24.55698 01 11 12.598+04 54 24.04         24.3 rqEU125568
     K13U17H @C2014 07 27.58768 01 11 11.954+04 53 55.92         24.5 rqEU125568
     K13U17H @C2014 08 22.55261 01 10 28.332+04 46 08.97         24.1 rqEU125568
     K13U17H @C2014 08 22.56426 01 10 28.307+04 46 08.60         24.0 rqEU125568
     K13U17H @C2014 08 28.41447 01 10 09.805+04 43 33.97         24.2 rqEU125568
     K13U17H @C2014 08 28.42620 01 10 09.761+04 43 33.66         24.3 rqEU125568
     K13U17H @C2014 10 25.28038 01 05 32.440+04 10 36.56         23.8 rqEU125568
     K13U17H @C2014 10 25.33867 01 05 32.119+04 10 34.81         24.5 rqEU125568
     K13U17H @C2014 10 27.31342 01 05 22.111+04 09 28.74         24.1 rqEU125568
     K13U17H @C2014 10 27.33186 01 05 21.995+04 09 28.21         25.3 uqEU125568
     K13U17H @C2014 10 27.36433 01 05 21.846+04 09 27.14         24.4 rqEU125568
     K13U17H @C2014 10 27.40661 01 05 21.622+04 09 25.77         24.5 rqEU125568
     K13U17H @C2014 11 24.23611 01 03 21.281+03 56 39.18         24.1 rqEU125568
     K13U17H @C2014 11 25.23226 01 03 17.978+03 56 18.94         24.5 rqEU125568
     K13U17H @C2014 12 17.26271 01 02 28.561+03 51 32.85         24.4 rqEU125568
     K13U17H @C2015 01 17.24366 01 02 47.754+03 54 22.96         24.4 rqEU125568
     K13U17H @C2015 12 07.38604 01 10 54.800+04 22 06.24         24.7 wqEU125568
     K13U17H @C2017 07 24.60568 01 35 43.447+06 19 15.52         24.6 wqEU125568
     K13U17H @C2017 08 25.50368 01 35 10.298+06 10 58.68         24.1 wqEU125568
     K13U17H @C2017 08 30.44591 01 34 56.079+06 08 52.98         24.6 wqEU125568
     K13U17H @C2017 08 30.49268 01 34 55.934+06 08 51.76         24.5 wqEU125568
 
Observer details:
568 Mauna Kea.  Observers M. T. Bannister, J. J. Kavelaars, B. J. Gladman,
    J.-M. Petit, T. Burdullis.  Measurers S. D. J. Gwyn, Y.-T. Chen,
    M. Alexandersen, M. Schwamb.  3.6-m Canada-France-Hawaii Telescope + CCD.
 
Orbital elements:
2013 UH17
Epoch 2017 Sept. 4.0 TT = JDT 2458000.5                 MPC
M 350.62813              (2000.0)            P               Q
n   0.00301841     Peri.  219.60765     +0.75159303     -0.65960980
a  47.4187872      Node   181.68542     +0.63888590     +0.72974305
e   0.2983623      Incl.    9.34897     +0.16411194     +0.17997217
P 327              H    9.0           G   0.15           U   2
Residuals in seconds of arc
130802 568  0.1+  0.0     131129 568  0.1+  0.0     141027 568  0.2+  0.0
130802 568  0.0   0.1+    131204 568  0.1-  0.1-    141027 568  0.1-  0.0
130830 568  0.1-  0.0     131204 568  0.1+  0.2-    141027 568  0.1+  0.0
130831 568  0.1-  0.1+    140627 568  0.1+  0.1-    141027 568  0.0   0.1+
130831 568  0.2-  0.0     140628 568  0.1+  0.1-    141124 568  0.2-  0.0
131006 568  0.1+  0.0     140724 568  0.0   0.0     141125 568  0.0   0.0
131006 568  0.0   0.2-    140727 568  0.2-  0.1+    141217 568  0.1+  0.0
131031 568  0.1+  0.0     140822 568  0.1-  0.0     150117 568  0.1-  0.1-
131031 568  0.1-  0.0     140822 568  0.1+  0.1-    151207 568  0.0   0.0
131031 568  0.2-  0.1+    140828 568  0.1+  0.0     170724 568  0.0   0.0
131101 568  0.1+  0.1+    140828 568  0.0   0.0     170825 568  0.0   0.1+
131101 568  0.1+  0.0     141025 568  0.1+  0.2-    170830 568  0.0   0.0
131105 568  0.0   0.3+    141025 568  0.1-  0.0     170830 568  0.0   0.0

Ephemeris:
2013 UH17                a,e,i = 47.42, 0.30, 9                  q = 33.271
Date    TT    R. A. (2000) Decl.     Delta      r     Elong.  Phase     V
2017 09 20    01 33 36.0 +05 58 29  32.7496 33.6468   152.9     0.8    24.3
...
2017 10 05    01 32 21.7 +05 49 48  32.6656 33.6432   167.7     0.4    24.3
...
2017 10 13    01 31 39.2 +05 45 03  32.6475 33.6413   174.8     0.2    24.3
...
2017 10 19    01 31 06.7 +05 41 31  32.6465 33.6399   175.7     0.1    24.2
2017 10 20    01 31 01.3 +05 40 56  32.6474 33.6397   175.1     0.1    24.2
2017 10 21    01 30 55.9 +05 40 22  32.6486 33.6394   174.3     0.2    24.3
...
2017 10 27    01 30 23.7 +05 36 57  32.6622 33.6380   168.9     0.3    24.3
...
2017 11 04    01 29 42.0 +05 32 38  32.6970 33.6361   161.0     0.6    24.3
...
2017 11 19    01 28 30.9 +05 25 35  32.8113 33.6326   145.7     0.9    24.4

A. U. Tomatic                (C) Copyright 2017 MPC           M.P.E.C. 2017-U125



More information about the Iaude mailing list